Time,TemperatureF,DewpointF,PressureIn,WindDirection,WindDirectionDegrees,WindSpeedMPH,WindSpeedGustMPH,Humidity,HourlyPrecipIn,Conditions,Clouds,dailyrainin,SoftwareType,DateUTC
2013-07-20 00:09:00,69.1,69.0,29.89,NW,326,0.0,-999.0,98,-99.99,,,0.08,weatherlink.com 1.10,2013-07-20 04:09:00,
2013-07-20 00:24:00,68.8,68.0,29.88,NW,326,0.0,-999.0,98,-99.99,,,0.00,weatherlink.com 1.10,2013-07-20 04:24:00,
2013-07-20 00:39:00,68.8,68.0,29.88,NW,326,0.0,-999.0,98,-99.99,,,0.00,weatherlink.com 1.10,2013-07-20 04:39:00,
2013-07-20 00:54:00,68.4,68.0,29.87,NW,326,0.0,-999.0,98,-99.99,,,0.00,weatherlink.com 1.10,2013-07-20 04:54:00,
2013-07-20 01:09:00,68.4,68.0,29.87,NW,326,0.0,-999.0,99,-99.99,,,0.00,weatherlink.com 1.10,2013-07-20 05:09:00,
2013-07-20 01:24:00,68.6,68.0,29.86,SE,126,0.0,-999.0,99,-99.99,,,0.00,weatherlink.com 1.10,2013-07-20 05:24:00,
2013-07-20 01:39:00,68.9,69.0,29.88,ENE,66,0.0,-999.0,99,-99.99,,,0.00,weatherlink.com 1.10,2013-07-20 05:39:00,
2013-07-20 01:54:00,68.9,69.0,29.88,North,357,0.0,-999.0,99,-99.99,,,0.00,weatherlink.com 1.10,2013-07-20 05:54:00,
2013-07-20 02:09:00,68.8,68.0,29.88,North,357,0.0,-999.0,98,-99.99,,,0.00,weatherlink.com 1.10,2013-07-20 06:09:00,
2013-07-20 02:24:00,68.6,68.0,29.88,WNW,301,0.0,-999.0,98,-99.99,,,0.00,weatherlink.com 1.10,2013-07-20 06:24:00,
2013-07-20 02:39:00,68.8,68.0,29.87,NW,308,0.0,-999.0,98,-99.99,,,0.00,weatherlink.com 1.10,2013-07-20 06:39:00,
2013-07-20 02:54:00,68.8,68.0,29.88,NW,308,0.0,-999.0,98,-99.99,,,0.00,weatherlink.com 1.10,2013-07-20 06:54:00,
2013-07-20 03:09:00,68.4,68.0,29.88,NW,308,0.0,-999.0,98,-99.99,,,0.00,weatherlink.com 1.10,2013-07-20 07:09:00,
2013-07-20 03:24:00,68.1,68.0,29.88,NW,308,0.0,-999.0,98,-99.99,,,0.00,weatherlink.com 1.10,2013-07-20 07:24:00,
2013-07-20 03:39:00,67.9,67.0,29.87,NW,308,0.0,-999.0,98,-99.99,,,0.00,weatherlink.com 1.10,2013-07-20 07:39:00,
2013-07-20 03:54:00,67.6,67.0,29.87,NW,308,0.0,-999.0,99,-99.99,,,0.00,weatherlink.com 1.10,2013-07-20 07:54:00,
2013-07-20 04:09:00,67.4,67.0,29.88,NW,308,0.0,-999.0,99,-99.99,,,0.00,weatherlink.com 1.10,2013-07-20 08:09:00,
2013-07-20 04:24:00,67.1,67.0,29.87,NW,308,0.0,-999.0,99,-99.99,,,0.00,weatherlink.com 1.10,2013-07-20 08:24:00,
2013-07-20 04:39:00,66.6,66.0,29.86,NW,308,0.0,-999.0,99,-99.99,,,0.00,weatherlink.com 1.10,2013-07-20 08:39:00,
2013-07-20 04:54:00,66.4,66.0,29.86,NW,308,0.0,-999.0,100,-99.99,,,0.00,weatherlink.com 1.10,2013-07-20 08:54:00,
2013-07-20 05:09:00,66.4,66.0,29.86,NW,308,0.0,-999.0,100,-99.99,,,0.00,weatherlink.com 1.10,2013-07-20 09:09:00,
2013-07-20 05:24:00,66.3,66.0,29.86,NW,308,0.0,-999.0,100,-99.99,,,0.00,weatherlink.com 1.10,2013-07-20 09:24:00,
2013-07-20 05:40:00,66.3,66.0,29.86,NW,308,0.0,-999.0,100,-99.99,,,0.00,weatherlink.com 1.10,2013-07-20 09:40:00,
2013-07-20 05:55:00,66.1,66.0,29.86,NW,308,0.0,-999.0,100,-99.99,,,0.00,weatherlink.com 1.10,2013-07-20 09:55:00,
2013-07-20 06:10:00,65.8,66.0,29.86,NW,308,0.0,-999.0,100,-99.99,,,0.00,weatherlink.com 1.10,2013-07-20 10:10:00,
2013-07-20 06:25:00,65.6,66.0,29.86,NW,308,0.0,-999.0,100,-99.99,,,0.00,weatherlink.com 1.10,2013-07-20 10:25:00,
2013-07-20 06:40:00,65.6,66.0,29.88,NW,308,0.0,-999.0,100,-99.99,,,0.00,weatherlink.com 1.10,2013-07-20 10:40:00,
2013-07-20 06:55:00,65.8,66.0,29.88,NW,308,0.0,-999.0,100,-99.99,,,0.00,weatherlink.com 1.10,2013-07-20 10:55:00,
2013-07-20 07:10:00,66.1,66.0,29.88,NW,308,0.0,-999.0,100,-99.99,,,0.00,weatherlink.com 1.10,2013-07-20 11:10:00,
2013-07-20 07:25:00,66.6,67.0,29.88,NW,308,0.0,-999.0,100,-99.99,,,0.00,weatherlink.com 1.10,2013-07-20 11:25:00,
2013-07-20 07:40:00,66.8,67.0,29.89,NW,308,0.0,-999.0,100,-99.99,,,0.00,weatherlink.com 1.10,2013-07-20 11:40:00,
2013-07-20 07:55:00,67.3,67.0,29.89,NW,308,0.0,-999.0,100,-99.99,,,0.00,weatherlink.com 1.10,2013-07-20 11:55:00,
2013-07-20 08:10:00,67.9,68.0,29.89,NW,308,0.0,-999.0,100,-99.99,,,0.00,weatherlink.com 1.10,2013-07-20 12:10:00,
2013-07-20 08:25:00,68.8,69.0,29.89,NW,312,0.0,-999.0,100,-99.99,,,0.00,weatherlink.com 1.10,2013-07-20 12:25:00,
2013-07-20 08:40:00,69.9,69.0,29.89,NW,312,0.0,-999.0,97,-99.99,,,0.00,weatherlink.com 1.10,2013-07-20 12:40:00,
2013-07-20 08:55:00,70.6,69.0,29.90,NNE,25,0.0,-999.0,93,-99.99,,,0.00,weatherlink.com 1.10,2013-07-20 12:55:00,
2013-07-20 09:10:00,71.1,68.0,29.89,North,0,0.0,-999.0,91,-99.99,,,0.00,weatherlink.com 1.10,2013-07-20 13:10:00,
2013-07-20 09:25:00,71.8,69.0,29.90,North,0,0.0,-999.0,91,-99.99,,,0.00,weatherlink.com 1.10,2013-07-20 13:25:00,
2013-07-20 09:40:00,72.8,70.0,29.90,North,7,0.0,-999.0,89,-99.99,,,0.00,weatherlink.com 1.10,2013-07-20 13:40:00,
2013-07-20 09:55:00,74.4,69.0,29.90,WSW,253,0.0,-999.0,83,-99.99,,,0.00,weatherlink.com 1.10,2013-07-20 13:55:00,
2013-07-20 10:10:00,74.7,70.0,29.90,East,88,0.0,-999.0,84,-99.99,,,0.00,weatherlink.com 1.10,2013-07-20 14:10:00,
2013-07-20 10:25:00,75.1,69.0,29.90,SE,130,0.0,-999.0,82,-99.99,,,0.00,weatherlink.com 1.10,2013-07-20 14:25:00,
2013-07-20 10:40:00,74.6,67.0,29.90,NE,37,0.0,-999.0,77,-99.99,,,0.00,weatherlink.com 1.10,2013-07-20 14:40:00,
2013-07-20 10:55:00,74.7,67.0,29.91,NW,304,0.0,-999.0,78,-99.99,,,0.00,weatherlink.com 1.10,2013-07-20 14:55:00,
2013-07-20 11:10:00,74.7,67.0,29.90,WNW,284,0.0,-999.0,78,-99.99,,,0.00,weatherlink.com 1.10,2013-07-20 15:10:00,
2013-07-20 11:25:00,74.2,67.0,29.90,SSW,206,0.0,-999.0,78,-99.99,,,0.00,weatherlink.com 1.10,2013-07-20 15:25:00,
2013-07-20 11:40:00,73.3,66.0,29.91,SW,217,0.0,-999.0,77,-99.99,,,0.00,weatherlink.com 1.10,2013-07-20 15:40:00,
2013-07-20 11:55:00,73.5,66.0,29.90,SSE,161,0.0,-999.0,77,-99.99,,,0.00,weatherlink.com 1.10,2013-07-20 15:55:00,
2013-07-20 12:10:00,74.2,66.0,29.90,WSW,241,0.0,-999.0,76,-99.99,,,0.00,weatherlink.com 1.10,2013-07-20 16:10:00,
2013-07-20 12:25:00,74.2,67.0,29.90,SSE,154,0.0,-999.0,79,-99.99,,,0.00,weatherlink.com 1.10,2013-07-20 16:25:00,
2013-07-20 12:40:00,74.6,67.0,29.90,ESE,106,0.0,-999.0,77,-99.99,,,0.00,weatherlink.com 1.10,2013-07-20 16:40:00,
2013-07-20 12:55:00,75.4,68.0,29.89,ESE,121,0.0,-999.0,77,-99.99,,,0.00,weatherlink.com 1.10,2013-07-20 16:55:00,
2013-07-20 13:10:00,75.6,68.0,29.87,ESE,121,0.0,-999.0,76,-99.99,,,0.00,weatherlink.com 1.10,2013-07-20 17:10:00,
2013-07-20 13:25:00,76.1,68.0,29.86,SE,127,0.0,-999.0,75,-99.99,,,0.00,weatherlink.com 1.10,2013-07-20 17:25:00,
2013-07-20 13:40:00,76.1,68.0,29.87,ESE,116,0.0,-999.0,76,-99.99,,,0.00,weatherlink.com 1.10,2013-07-20 17:40:00,
2013-07-20 13:55:00,76.1,68.0,29.87,ESE,120,0.0,-999.0,76,-99.99,,,0.00,weatherlink.com 1.10,2013-07-20 17:55:00,
2013-07-20 14:10:00,76.8,69.0,29.86,WNW,284,0.0,-999.0,78,-99.99,,,0.00,weatherlink.com 1.10,2013-07-20 18:10:00,
2013-07-20 14:25:00,77.4,70.0,29.84,North,11,0.0,-999.0,77,-99.99,,,0.00,weatherlink.com 1.10,2013-07-20 18:25:00,
2013-07-20 14:55:00,77.4,69.0,29.84,South,188,0.0,-999.0,75,-99.99,,,0.00,weatherlink.com 1.10,2013-07-20 18:55:00,
2013-07-20 15:10:00,76.7,69.0,29.84,ESE,104,0.0,-999.0,77,-99.99,,,0.00,weatherlink.com 1.10,2013-07-20 19:10:00,
2013-07-20 15:25:00,76.3,69.0,29.84,ESE,104,0.0,-999.0,79,-99.99,,,0.00,weatherlink.com 1.10,2013-07-20 19:25:00,
2013-07-20 16:10:00,75.3,70.0,29.84,ESE,107,0.0,-999.0,83,-99.99,,,0.00,weatherlink.com 1.10,2013-07-20 20:10:00,
2013-07-20 16:25:00,75.3,69.0,29.84,ESE,107,0.0,-999.0,80,-99.99,,,0.00,weatherlink.com 1.10,2013-07-20 20:25:00,
2013-07-20 16:55:00,74.6,69.0,29.85,ESE,107,0.0,-999.0,83,-99.99,,,0.00,weatherlink.com 1.10,2013-07-20 20:55:00,
2013-07-20 17:10:00,74.2,69.0,29.84,WNW,296,0.0,-999.0,84,-99.99,,,0.00,weatherlink.com 1.10,2013-07-20 21:10:00,
2013-07-20 17:25:00,74.0,69.0,29.84,WNW,301,0.0,-999.0,83,-99.99,,,0.00,weatherlink.com 1.10,2013-07-20 21:25:00,
2013-07-20 17:40:00,74.0,69.0,29.83,WNW,301,0.0,-999.0,83,-99.99,,,0.00,weatherlink.com 1.10,2013-07-20 21:40:00,
2013-07-20 17:55:00,73.9,68.0,29.83,WNW,301,0.0,-999.0,82,-99.99,,,0.00,weatherlink.com 1.10,2013-07-20 21:55:00,
2013-07-20 18:25:00,74.4,68.0,29.83,WNW,301,0.0,-999.0,81,-99.99,,,0.00,weatherlink.com 1.10,2013-07-20 22:25:00,
2013-07-20 18:40:00,74.6,69.0,29.82,WNW,301,0.0,-999.0,82,-99.99,,,0.00,weatherlink.com 1.10,2013-07-20 22:40:00,
2013-07-20 18:55:00,74.6,70.0,29.82,WNW,301,0.0,-999.0,86,-99.99,,,0.00,weatherlink.com 1.10,2013-07-20 22:55:00,
2013-07-20 19:10:00,74.6,71.0,29.82,WNW,301,0.0,-999.0,87,-99.99,,,0.00,weatherlink.com 1.10,2013-07-20 23:10:00,
2013-07-20 19:25:00,74.0,70.0,29.82,NW,304,0.0,-999.0,88,-99.99,,,0.00,weatherlink.com 1.10,2013-07-20 23:25:00,
2013-07-20 19:40:00,73.3,70.0,29.81,NW,304,0.0,-999.0,89,-99.99,,,0.00,weatherlink.com 1.10,2013-07-20 23:40:00,
2013-07-20 20:10:00,71.8,69.0,29.84,NW,304,0.0,-999.0,92,-99.99,,,0.00,weatherlink.com 1.10,2013-07-21 00:10:00,
2013-07-20 20:25:00,71.3,69.0,29.84,NW,304,0.0,-999.0,93,-99.99,,,0.00,weatherlink.com 1.10,2013-07-21 00:25:00,
2013-07-20 20:55:00,69.6,68.0,29.85,NW,304,0.0,-999.0,93,-99.99,,,0.00,weatherlink.com 1.10,2013-07-21 00:55:00,
2013-07-20 21:10:00,69.4,68.0,29.85,NW,304,0.0,-999.0,94,-99.99,,,0.00,weatherlink.com 1.10,2013-07-21 01:10:00,
2013-07-20 21:25:00,69.1,68.0,29.85,NW,304,0.0,-999.0,95,-99.99,,,0.00,weatherlink.com 1.10,2013-07-21 01:25:00,
2013-07-20 21:40:00,68.8,67.0,29.85,NW,304,0.0,-999.0,95,-99.99,,,0.00,weatherlink.com 1.10,2013-07-21 01:40:00,
2013-07-20 21:55:00,68.4,68.0,29.86,NW,304,0.0,-999.0,97,-99.99,,,0.00,weatherlink.com 1.10,2013-07-21 01:55:00,
2013-07-20 22:10:00,67.9,67.0,29.86,NW,304,0.0,-999.0,97,-99.99,,,0.00,weatherlink.com 1.10,2013-07-21 02:10:00,
2013-07-20 22:25:00,67.9,67.0,29.87,NW,304,0.0,-999.0,97,-99.99,,,0.00,weatherlink.com 1.10,2013-07-21 02:25:00,
2013-07-20 22:55:00,67.9,66.0,29.88,NW,304,0.0,-999.0,93,-99.99,,,0.00,weatherlink.com 1.10,2013-07-21 02:55:00,
2013-07-20 23:10:00,67.9,65.0,29.88,NW,304,0.0,-999.0,91,-99.99,,,0.00,weatherlink.com 1.10,2013-07-21 03:10:00,
2013-07-20 23:25:00,68.1,65.0,29.88,NW,304,0.0,-999.0,91,-99.99,,,0.00,weatherlink.com 1.10,2013-07-21 03:25:00,